Regional Weather Roundup
Issued by NWS

Home | Current Version | Previous Version | Text Only | Print | Product List | Glossary Off
Versions: 1 2 3 4 5 6 7 8 9 10 11 12 13 14 15 16 17 18 19 20 21 22 23 24 25 26 27 28 29 30 31 32 33 34 35 36 37 38 39 40 41 42 43 44 45 46 47 48 49 50

000
ASUS43 KBIS 300410
RWRND

NORTH DAKOTA REGIONAL WEATHER ROUNDUP
NATIONAL WEATHER SERVICE BISMARCK ND
1100 PM CDT FRI APR 29 2016

NOTE: "FAIR" INDICATES FEW OR NO CLOUDS BELOW 12,000 FEET WITH NO
SIGNIFICANT WEATHER AND/OR OBSTRUCTIONS TO VISIBILITY.


NDZ001>003-009>011-017-300500-
NORTHWEST NORTH DAKOTA

CITY           SKY/WX    TMP DP  RH WIND       PRES   REMARKS
WILLISTON      PTCLDY    49  26  41 E12       30.14R
MINOT          CLEAR     48  27  44 E7        30.17R
MINOT AFB      CLEAR     46  28  49 E9        30.17R
$$

NDZ018>021-031>035-040>046-300500-
SOUTHWEST NORTH DAKOTA

CITY           SKY/WX    TMP DP  RH WIND       PRES   REMARKS
BISMARCK       CLEAR     46  35  65 NE7       30.12S
DICKINSON      MOCLDY    41  31  67 E9        30.08S
GARRISON         N/A     48  29  47 E12       30.15R
HETTINGER ARPT CLOUDY    43  34  70 S5        30.10R
$$

NDZ004>008-012>016-024-026-027-054-300500-
NORTHEAST NORTH DAKOTA

CITY           SKY/WX    TMP DP  RH WIND       PRES   REMARKS
GRAND FORKS    PTCLDY    51  32  48 NE13      30.18R
GRND FRKS AFB  CLEAR     47  29  49 E9        30.18R
DEVILS LAKE    CLEAR     45  32  60 E8        30.19R
$$

NDZ022-023-025-028>030-036>039-047>053-300500-
SOUTHEAST NORTH DAKOTA

CITY           SKY/WX    TMP DP  RH WIND       PRES   REMARKS
FARGO          CLEAR     53  32  44 NE15      30.11F
JAMESTOWN      CLEAR     47  33  58 NE9       30.12R
$$




USA.gov is the U.S. government's official web portal to all federal, state and local government web resources and services.